M.P.E.C. 2023-P82 Issued 2023 August 15, 11:53 UT The Minor Planet Electronic Circulars contain information on unusual minor planets, routine data on comets and natural satellites, and occasional editorial announcements. They are published on behalf of Division F of the International Astronomical Union by the Minor Planet Center, Smithsonian Astrophysical Observatory, Cambridge, MA 02138, U.S.A. Prepared using the Tamkin Foundation Computer Network MPC@CFA.HARVARD.EDU URL https://www.minorplanetcenter.net/ ISSN 1523-6714 2023 PM1 Observations: K23P01M* C2023 08 13.90411 21 37 13.58 +12 36 02.8 18.9 RoEP082K88 K23P01M C2023 08 13.90874 21 37 13.29 +12 36 31.9 19.2 RoEP082K88 K23P01M C2023 08 13.91306 21 37 12.97 +12 37 00.0 18.7 RoEP082K88 K23P01M KC2023 08 13.93342 21 37 11.54 +12 39 11.3 18.8 RoEP082K88 K23P01M KC2023 08 13.93538 21 37 11.38 +12 39 24.4 18.7 RoEP082K88 K23P01M KC2023 08 13.93735 21 37 11.24 +12 39 36.8 18.8 RoEP082K88 K23P01M KC2023 08 13.94259121 37 11.40 +12 40 14.1 19.6 GXEP082L01 K23P01M 1C2023 08 13.94412 21 37 11.36 +12 40 15.8 20.0 VXEP082033 K23P01M KC2023 08 13.94427821 37 11.27 +12 40 25.0 19.3 GXEP082L01 K23P01M 1C2023 08 13.94441 21 37 11.34 +12 40 17.6 19.7 VXEP082033 K23P01M 1C2023 08 13.94469 21 37 11.33 +12 40 19.4 19.5 VXEP082033 K23P01M 1C2023 08 13.94506 21 37 11.30 +12 40 21.8 19.8 VXEP082033 K23P01M KC2023 08 13.94575321 37 11.18 +12 40 34.5 19.5 GXEP082L01 K23P01M KC2023 08 13.94702221 37 11.07 +12 40 43.0 19.3 GXEP082L01 K23P01M KC2023 08 13.94829121 37 10.98 +12 40 51.2 19.4 GXEP082L01 K23P01M KC2023 08 13.97361 21 37 09.29 +12 43 34.0 19.7 GVEP082K51 K23P01M KC2023 08 13.97583 21 37 09.13 +12 43 48.8 19.6 GVEP082K51 K23P01M KC2023 08 13.97805 21 37 08.97 +12 44 03.1 19.5 GVEP082K51 K23P01M KC2023 08 14.02131221 37 05.80 +12 48 48.2 19.0 GVEP082104 K23P01M KC2023 08 14.02438221 37 05.55 +12 49 08.2 19.2 GVEP082104 K23P01M KC2023 08 14.03257021 37 04.93 +12 50 01.9 19.4 GVEP082104 K23P01M KC2023 08 14.05149921 37 10.53 +12 52 04.4 19.6 GXEP082W62 K23P01M KC2023 08 14.05817521 37 10.11 +12 52 49.2 19.6 GXEP082W62 K23P01M 1C2023 08 14.05999 21 37 03.20 +12 52 52.1 19.7 VXEP082033 K23P01M 1C2023 08 14.06027 21 37 03.18 +12 52 53.9 19.8 VXEP082033 K23P01M 1C2023 08 14.06056 21 37 03.16 +12 52 55.7 19.8 VXEP082033 K23P01M 1C2023 08 14.06089 21 37 03.14 +12 52 57.8 20.1 VXEP082033 K23P01M KC2023 08 14.06474321 37 09.71 +12 53 33.2 19.7 GXEP082W62 K23P01M 0B2023 08 14.83883 21 36 32.19 +14 30 00.0 19.6 VZEP082M49 K23P01M KC2023 08 14.84161621 36 30.99 +14 28 15.5 19.3 GXEP082L01 K23P01M KC2023 08 14.84263221 36 30.93 +14 28 23.2 19.3 GXEP082L01 K23P01M 0B2023 08 14.84265 21 36 31.85 +14 30 30.5 19.7 VZEP082M49 K23P01M KC2023 08 14.84366921 36 30.82 +14 28 31.8 19.3 GXEP082L01 K23P01M KC2023 08 14.84414 21 36 30.19 +14 28 32.2 19.4 GVEP082K88 K23P01M KC2023 08 14.84458221 36 30.77 +14 28 39.5 18.9 GXEP082L01 K23P01M 0B2023 08 14.84646 21 36 31.49 +14 31 02.8 18.5 VZEP082M49 K23P01M KC2023 08 14.84808 21 36 29.87 +14 29 05.1 19.2 GVEP082K88 K23P01M KC2023 08 14.85202 21 36 29.53 +14 29 37.2 19.2 GVEP082K88 K23P01M KB2023 08 14.85853 21 36 29.470+14 30 21.89 19.4 GXEP082L38 K23P01M KB2023 08 14.86101 21 36 29.268+14 30 42.37 19.0 GXEP082L38 K23P01M KB2023 08 14.86337 21 36 29.078+14 31 01.88 19.1 GXEP082L38 K23P01M KC2023 08 14.86388 21 36 29.56 +14 31 16.2 19.2 GXEP082K78 K23P01M KB2023 08 14.86793 21 36 28.699+14 31 38.89 18.8 GXEP082L38 K23P01M KB2023 08 14.86807 21 36 29.52 +14 31 52.4 19.0 VZEP082C95 K23P01M KB2023 08 14.87002 21 36 28.548+14 31 56.17 18.5 GXEP082L38 K23P01M KB2023 08 14.87211 21 36 28.397+14 32 13.20 18.1 GXEP082L38 K23P01M KC2023 08 14.87304 21 36 28.79 +14 32 31.6 19.4 GXEP082K78 K23P01M KC2023 08 14.87461 21 36 28.46 +14 32 52.6 19.0 GVEP082C82 K23P01M KB2023 08 14.87551 21 36 28.90 +14 32 53.5 19.3 VZEP082C95 K23P01M KB2023 08 14.87597 21 36 28.07 +14 32 42.3 18.7 GVEP082L65 K23P01M KB2023 08 14.87677 21 36 28.22 +14 32 53.8 18.7 rZEP082K35 K23P01M KC2023 08 14.87826 21 36 28.18 +14 33 23.8 18.9 GVEP082C82 K23P01M KB2023 08 14.87902 21 36 27.840+14 33 09.90 19.1 GXEP082L38 K23P01M KC2023 08 14.87973 21 36 28.02 +14 33 35.9 18.7 GVEP082C82 K23P01M KB2023 08 14.87977 21 36 28.08 +14 33 16.8 17.7 rZEP082K35 K23P01M KC2023 08 14.88221 21 36 28.02 +14 33 47.1 19.1 GXEP082K78 K23P01M KB2023 08 14.88258 21 36 27.78 +14 33 41.4 18.3 rZEP082K35 K23P01M KB2023 08 14.88266 21 36 28.34 +14 33 52.4 19.4 VZEP082C95 K23P01M KB2023 08 14.88520 21 36 27.57 +14 34 03.8 18.9 rZEP082K35 K23P01M KC2023 08 14.88556 21 36 26.76 +14 34 08.4 19.2 GXEP082G02 K23P01M KC2023 08 14.88611 21 36 27.40 +14 34 28.1 19.1 GVEP082C82 K23P01M KB2023 08 14.89008 21 36 27.73 +14 34 53.6 19.4 VZEP082C95 K23P01M KB2023 08 14.89181 21 36 26.80 +14 34 53.5 18.8 GVEP082L65 K23P01M KC2023 08 14.89383 21 36 26.00 +14 35 15.8 18.9 GXEP082G02 K23P01M KB2023 08 14.89780 21 36 27.07 +14 35 57.0 19.0 VZEP082C95 K23P01M KC2023 08 14.90265 21 36 25.27 +14 36 28.7 18.8 GXEP082G02 K23P01M KB2023 08 14.90523 21 36 26.43 +14 36 58.6 19.3 VZEP082C95 K23P01M KB2023 08 14.90766 21 36 25.50 +14 37 04.1 19.3 GVEP082L65 K23P01M KC2023 08 14.90785 21 36 26.10 +14 37 20.8 18.8 GVEP082M10 K23P01M KC2023 08 14.91682 21 36 25.29 +14 38 35.2 18.8 GVEP082M10 K23P01M KC2023 08 14.91989 21 36 24.77 +14 38 58.9 18.9 GXEP082G15 K23P01M KC2023 08 14.91999421 36 25.09 +14 39 01.3 XEP082C95 K23P01M KC2023 08 14.92330 21 36 24.46 +14 39 27.2 18.9 GXEP082G15 K23P01M KC2023 08 14.92575 21 36 24.47 +14 39 49.2 19.6 GVEP082M10 K23P01M KC2023 08 14.92950 21 36 23.90 +14 40 18.6 18.9 GXEP082G15 K23P01M KC2023 08 14.93184421 36 23.13 +14 40 28.1 19.2 GVEP082G34 K23P01M KC2023 08 14.93490421 36 22.81 +14 40 54.1 18.6 GVEP082G34 K23P01M KC2023 08 14.93557 21 36 23.30 +14 41 08.4 20.0 GXEP082G15 K23P01M 1C2023 08 14.93678 21 36 22.86 +14 41 08.7 20.3 VXEP082033 K23P01M KC2023 08 14.93704321 36 23.54 +14 41 22.5 19.0 GXEP082C95 K23P01M 1C2023 08 14.93707 21 36 22.82 +14 41 11.3 20.0 VXEP082033 K23P01M 1C2023 08 14.93735 21 36 22.81 +14 41 13.7 20.2 VXEP082033 K23P01M KB2023 08 14.94518921 36 22.479+14 42 19.08 19.3 GXEP082B72 K23P01M KC2023 08 14.94972921 36 22.843+14 42 54.61 19.1 GVEP082J95 K23P01M KB2023 08 14.95232221 36 21.851+14 43 18.36 19.1 GXEP082B72 K23P01M KC2023 08 14.95241921 36 22.596+14 43 16.79 19.1 GVEP082J95 K23P01M KC2023 08 14.95382521 36 22.03 +14 43 42.3 19.1 GXEP082C95 K23P01M KC2023 08 14.95510221 36 22.363+14 43 39.32 19.2 GVEP082J95 K23P01M KC2023 08 14.95780721 36 22.111+14 44 02.00 19.0 GVEP082J95 K23P01M KB2023 08 14.95945121 36 21.212+14 44 18.40 19.2 GXEP082B72 K23P01M KC2023 08 14.97785221 36 19.05 +14 46 51.3 18.8 GVEP082G34 K23P01M KC2023 08 14.98091221 36 18.81 +14 47 16.6 19.1 GVEP082G34 K23P01M KC2023 08 14.98397321 36 18.46 +14 47 42.2 19.4 GVEP082G34 K23P01M KC2023 08 15.14898921 36 14.86 +15 11 35.4 19.2 GXEP082858 K23P01M KC2023 08 15.15252721 36 14.56 +15 12 07.1 19.1 GXEP082858 K23P01M KC2023 08 15.15602921 36 14.26 +15 12 38.1 19.1 GXEP082858 K23P01M KC2023 08 15.21176 21 36 10.42 +15 20 47.4 18.5 RVEP082G58 K23P01M KC2023 08 15.21628 21 36 10.03 +15 21 28.5 17.5 RVEP082G58 K23P01M KC2023 08 15.22103 21 36 09.62 +15 22 11.1 17.9 RVEP082G58 K23P01M KC2023 08 15.24266021 36 03.86 +15 25 30.2 18.8 VuEP082H21 K23P01M KC2023 08 15.24395021 36 03.73 +15 25 41.9 18.9 VuEP082H21 K23P01M KC2023 08 15.24537521 36 03.58 +15 25 54.6 19.0 VuEP082H21 K23P01M KC2023 08 15.24910721 36 03.19 +15 26 28.4 19.0 VuEP082H21 K23P01M KC2023 08 15.25114021 36 02.97 +15 26 46.6 18.9 VuEP082H21 K23P01M KC2023 08 15.25317421 36 02.76 +15 27 04.9 19.0 VuEP082H21 K23P01M KB2023 08 15.29145 21 35 56.63 +15 35 04.3 qEP082X06 K23P01M KB2023 08 15.29386 21 35 56.38 +15 35 26.1 qEP082X06 Observer details: 033 Karl Schwarzschild Observatory, Tautenburg. Observers S. Melnikov, C. Hoegner, F. Ludwig, M. Hartmann, B. Stecklum. Measurer B. Stecklum. 1.34-m f/3 Schmidt + CCD. 104 San Marcello Pistoiese. Observers P. Bacci, M. Maestripieri. Measurers P. Bacci, L. Tesi, G. Fagioli. 0.60-m F4 Reflector + CCD. 858 Tebbutt Observatory, Edgewood. Observer F. B. Zoltowski. 0.51-m f/8.1 Schmidt-Cassegrain + CCD. B72 Soerth. Observer B. Koch. 0.36-m f/7.6 reflector + CMO. C82 Osservatorio Astronomico Nastro Verde, Sorrento. Observer N. Ruocco. 0.35-m f/6.3 Schmidt-Cassegrain + CCD. C95 SATINO Remote Observatory, Haute Provence. Observers D. Husar, J. Jahn. 0.30-m f/5.8 reflector + CMO, 0.60-m f/3.2 Newtonian reflector + CCD. G02 KYSUCE Observatory, Kysucke Nove Mesto. Observer M. Urbanik. 0.40-m f/6.8 Corrected Dall-Kirkham + CCD. G15 Magroforte Observatory, Alessandria. Observer A. De Pieri. 0.25-m f/5 Newton 254 + CCD. G34 Oberfrauendorf. Observer T. Felber. 0.35-m f/6.3 Schmidt-Cassegrain + CCD. G58 Chabot Space and Science Center, Oakland. Observers G. McKeegan, T. Deshmukh. 0.9-m f/4.5 Cassegrain+CCD. H21 Astronomical Research Observatory, Westfield. Observer R. Holmes. Measurers T. Linder, R. Holmes, L. Horn. 0.81-m f/4.0 astrograph + CCD. J95 Great Shefford. Observer P. Birtwhistle. 0.41-m f/6.3 Schmidt-Cassegrain + CCD. K35 Huenfelden. Observer P. Remmel. 0.36-m f/1.9 reflector + CMO. K51 Osservatorio del Celado, Castello Tesino. Observer M. Campestrin. 0.80-m f/4 reflector + CCD. K78 iota Scorpii Observatory, La Spezia. Observers G. Scarfi, P. Boongerd. reflector + CCD. K88 GINOP-KHK, Piszkesteto. Observer K. Sarneczky. 0.60-m Schmidt + CCD. L01 Visnjan Observatory, Tican. Observers K. Korlevic, L. Gelo, L. Ilisevic, I. Paleka, E. Pettarin. Measurers I. Paleka, K. Korlevic, E. Pettarin. 1.0-m f/2.9 reflector + CCD, 1.00-m f/2.9 reflector + CCD. L38 Gartensternwarte Schafsweide, Sehlde. Observer A. Opitz. 0.35-m f/5.2 Newton + CMO. L65 Bredenkamp Observatory, Bremen. Observer H. Duin. 0.23-m f/6.3 reflector + CMO. M10 CPF Observatory, St Vallier de Thiey. Observer C. Pin-ferrier. 0.25-m f/5 reflector + CCD. M49 IAS Remote Observatory, Hakos. Observers D. Husar, M. Junius. Measurer D. Husar. 0.25-m f/4.6 reflector + CMO. W62 Comet Hunter Observatory2, New Ringgold. Observer J. Maikner. 0.30-m f/3.8 Riccardi-Honders + CCD. X06 Skygems Chile, Rio Hurtado. Observer L. Demetz. 0.40-m f/5.5 reflector + CMO. Orbital elements: 2023 PM1 Earth MOID = 0.0203 AU Epoch 2023 Sept. 13.0 TT = JDT 2460200.5 Veres M 347.54555 (2000.0) P Q n 0.44946612 Peri. 258.92507 +0.54489883 -0.83732369 a 1.6878664 Node 157.88058 +0.80800317 +0.51017969 e 0.6272019 Incl. 6.77696 +0.22408961 +0.19648341 P 2.19 H 23.53 G 0.15 U 8 Residuals in seconds of arc 230813 K88 0.4- 0.1- 230814 K88 0.2+ 0.2+ 230814 G15 0.0 0.1+ 230813 K88 0.1+ 0.7- 230814 K88 0.1- 0.2+ 230814 M10 0.3- 0.2+ 230813 K88 0.1- 0.4- 230814 L38 0.4+ 0.2+ 230814 G15 0.0 0.1+ 230813 K88 0.3+ 0.2- 230814 L38 0.2+ 0.4+ 230814 G34 0.2+ 0.0 230813 K88 0.0 0.3+ 230814 L38 0.1+ 0.6+ 230814 G34 0.5- 0.6+ 230813 K88 0.0 0.0 230814 K78 0.1+ 1.9- 230814 G15 0.8- 0.5- 230813 L01 0.0 0.1- 230814 L38 0.2- 0.3+ 230814 033 0.1+ 0.0 230813 033 0.0 0.1+ 230814 C95 0.2- 0.6+ 230814 C95 0.4- 0.2+ 230813 L01 0.1- 0.1- 230814 L38 0.0 0.4+ 230814 033 0.1- 0.2+ 230813 033 0.0 0.0 230814 L38 0.2+ 0.3+ 230814 033 0.1+ 0.2+ 230813 033 0.1+ 0.0 230814 K78 0.1- 1.8- 230814 B72 0.1+ 0.3+ 230813 033 0.0 0.0 230814 C82 0.1- 0.7- 230814 J95 0.3+ 0.1+ 230813 L01 0.2+ 0.1- 230814 C95 0.4- 0.5+ 230814 B72 0.1+ 0.2+ 230813 L01 0.1- 0.2+ 230814 L65 0.0 0.7- 230814 J95 0.1+ 0.1- 230813 L01 0.0 0.2+ 230814 K35 0.2- 0.2+ 230814 C95 0.0 0.2+ 230813 K51 0.0 0.1- 230814 C82 0.5+ 0.5+ 230814 J95 0.1+ 0.0 230813 K51 0.1+ 0.3+ 230814 L38 0.2+ 0.3+ 230814 J95 0.2- 0.1+ 230813 K51 0.1+ 0.1+ 230814 C82 0.0 0.5+ 230814 B72 0.0 0.8+ 230814 104 0.2+ 0.0 230814 K35 1.3+ 1.5- 230814 G34 0.2+ 0.2+ 230814 104 0.1- 0.1- 230814 K78 0.0 1.7- 230814 G34 0.7+ 0.1- 230814 104 0.3- 0.0 230814 K35 0.2+ 0.0 230814 G34 0.4- 0.1- 230814 W62 0.0 0.1+ 230814 C95 0.1+ 0.5+ 230815 858 0.2- 0.0 230814 W62 0.2- 0.0 230814 K35 0.3+ 0.8+ 230815 858 0.1- 0.2+ 230814 033 0.0 0.3+ 230814 G02 0.3+ 0.8- 230815 858 0.1- 0.0 230814 033 0.0 0.2+ 230814 C82 0.8- 0.2+ 230815 G58 0.0 0.5- 230814 033 0.0 0.1+ 230814 C95 0.3+ 0.5+ 230815 G58 0.2+ 0.3- 230814 033 0.1+ 0.0 230814 L65 0.0 0.3+ 230815 G58 0.5+ 0.7- 230814 W62 0.0 0.1- 230814 G02 0.5- 1.4- 230815 H21 0.1+ 0.3+ 230814 M49 0.2- 0.2+ 230814 C95 0.3+ 0.2+ 230815 H21 0.2+ 0.4+ 230814 L01 0.0 0.5+ 230814 G02 0.0 1.1- 230815 H21 0.1+ 0.2+ 230814 L01 0.3+ 0.1- 230814 C95 0.4+ 0.3+ 230815 H21 0.0 0.4+ 230814 M49 0.3- 0.7- 230814 L65 0.0 0.2+ 230815 H21 0.1- 0.2+ 230814 L01 0.1- 0.0 230814 M10 0.2+ 0.2+ 230815 H21 0.1- 0.2+ 230814 K88 0.2+ 0.6- 230814 M10 0.0 0.3+ 230815 X06 0.2- 0.3- 230814 L01 0.2+ 0.3+ 230814 G15 0.1+ 0.1+ 230815 X06 0.3- 0.3- 230814 M49 0.6- 0.4+ 230814 C95 0.2- 0.7+ Ephemeris: 2023 PM1 a,e,i = 1.69, 0.63, 7 q = 0.6292 Date TT R. A. (2000) Decl. Delta r Elong. Phase V 2023 07 16 21 36 15.4 -00 38 13 0.4258 1.3858 144.6 25.1 23.5 ... 2023 07 31 21 39 41.1 +02 50 09 0.2408 1.2360 153.9 21.2 21.9 ... 2023 08 08 21 39 24.8 +06 21 31 0.1501 1.1529 156.1 20.9 20.7 ... 2023 08 14 21 37 08.2 +12 47 17 0.08527 1.0896 152.6 25.4 19.5 2023 08 15 21 36 18.2 +14 50 59 0.07480 1.0789 150.9 27.2 19.3 2023 08 16 21 35 10.6 +17 33 11 0.06450 1.0683 148.4 29.7 19.0 ... 2023 08 22 11 56 05.8 +80 05 58 0.02118 1.0044 69.3 109.6 19.3 ... 2023 08 30 09 47 53.8 +14 06 01 0.09237 0.9196 11.7 167.2 32.7 ... 2023 09 14 09 49 58.5 +05 48 00 0.2660 0.7705 23.9 148.1 28.2 M. P. C. Staff (C) Copyright 2023 MPC M.P.E.C. 2023-P82
